{"data":{"norad_id":63793,"intl_designator":"2025-091U","name":"STARLINK-33925","alt_names":[],"object_type":"PAYLOAD","status":"ACTIVE","operator":null,"country":"US","launch_date":"2025-05-02","launch_site_code":"AFETR","launch_vehicle":null,"mission":null,"orbit_class":"UNKNOWN","rcs_meters":null,"size_class":null,"mass_kg":null,"dimensions":null,"purposes":["comms"],"wikipedia_slug":null,"has_3d_model":false,"image_url":null,"decayed_at":null,"tle_current":{"epoch":"2026-09-19T16:26:54.036960Z","epoch_age_seconds":220285,"freshness":"STALE","line1":"1 63793U 25091U   26262.68534765  .00014876  00000+0  54883-3 0  9993","line2":"2 63793  43.0036  36.7377 0001694 280.2647  79.8013 15.27591679 78687","mean_motion":15.27591679,"eccentricity":0.0001694,"inclination_deg":43.0036,"raan_deg":36.7377,"arg_perigee_deg":280.2647,"mean_anomaly_deg":79.8013,"bstar":0.00054883,"rev_number":7868,"period_min":94.266028009701,"perigee_km":481.85184613436,"apogee_km":484.17640413556,"semimajor_km":6861.151125135,"source":"CELESTRAK","updated_at":"2026-09-21T09:00:35.101504Z"}}}